• In Hungary
  • List of Countries
  • For 7 days
  • Water Temperature
  • Satellite Maps
  • Weather Map
  • News
  • Weather Widgets
  • user-avatar
    Login

    Hourly Weather Farnworth

    Today, 19 November, Sunday

    Time Temperature Precipitation Wind Pressure Humidity
    00:00 +3°C° 0 mm 3 mps 754 mmHg 74%
    01:00 +3°C° 0 mm 3 mps 754 mmHg 74%
    02:00 +2°C° 0 mm 3 mps 754 mmHg 74%
    03:00 +2°C° 0 mm 3 mps 754 mmHg 74%
    04:00 +2°C° 0 mm 3 mps 754 mmHg 75%
    05:00 +3°C° 0 mm 2 mps 754 mmHg 75%
    06:00 +2°C° 0 mm 2 mps 754 mmHg 75%
    07:00 +3°C° 0 mm 2 mps 755 mmHg 75%
    08:00 +3°C° 0 mm 2 mps 755 mmHg 75%
    09:00 +3°C° 0 mm 2 mps 755 mmHg 74%
    10:00 +4°C° 0 mm 2 mps 755 mmHg 71%
    11:00 +5°C° 0 mm 2 mps 755 mmHg 68%
    12:00 +7°C° 0 mm 2 mps 755 mmHg 64%
    13:00 +6°C° 0 mm 2 mps 755 mmHg 67%
    14:00 +7°C° 0 mm 1 mps 755 mmHg 69%
    15:00 +7°C° 0 mm 1 mps 754 mmHg 71%
    16:00 +7°C° 0 mm 1 mps 754 mmHg 74%
    17:00 +5°C° 0 mm 2 mps 754 mmHg 77%
    18:00 +5°C° 0 mm 2 mps 754 mmHg 80%
    19:00 +5°C° 0 mm 2 mps 754 mmHg 81%
    20:00 +4°C° 0 mm 3 mps 753 mmHg 81%
    21:00 +4°C° 0 mm 3 mps 753 mmHg 82%
    22:00 +4°C° 0 mm 3 mps 752 mmHg 85%
    23:00 +4°C° 0 mm 4 mps 752 mmHg 87%

    Tomorrow, 20 November, Monday

    Time Temperature Precipitation Wind Pressure Humidity
    00:00 +5°C° 0 mm 4 mps 751 mmHg 90%
    01:00 +5°C° 0.7 mm 5 mps 750 mmHg 91%
    02:00 +5°C° 0.7 mm 6 mps 749 mmHg 92%
    03:00 +7°C° 0.7 mm 6 mps 748 mmHg 92%
    04:00 +8°C° 0.4 mm 7 mps 748 mmHg 92%
    05:00 +9°C° 0.4 mm 7 mps 747 mmHg 91%
    06:00 +9°C° 0.4 mm 8 mps 746 mmHg 91%
    07:00 +10°C° 0.1 mm 8 mps 746 mmHg 90%
    08:00 +10°C° 0.1 mm 8 mps 746 mmHg 90%
    09:00 +10°C° 0.1 mm 8 mps 746 mmHg 90%
    10:00 +11°C° 0 mm 8 mps 745 mmHg 87%
    11:00 +11°C° 0 mm 8 mps 745 mmHg 85%
    12:00 +12°C° 0 mm 8 mps 745 mmHg 82%
    13:00 +12°C° 0.1 mm 8 mps 744 mmHg 83%
    14:00 +12°C° 0.1 mm 8 mps 744 mmHg 84%
    15:00 +12°C° 0.1 mm 8 mps 744 mmHg 84%
    16:00 +11°C° 0.1 mm 7 mps 744 mmHg 86%
    17:00 +11°C° 0.1 mm 6 mps 744 mmHg 87%
    18:00 +12°C° 0.1 mm 5 mps 745 mmHg 89%
    19:00 +10°C° 0.1 mm 5 mps 745 mmHg 91%
    20:00 +11°C° 0.1 mm 4 mps 745 mmHg 92%
    21:00 +11°C° 0.1 mm 3 mps 745 mmHg 94%
    22:00 +11°C° 0.2 mm 3 mps 745 mmHg 95%
    23:00 +11°C° 0.2 mm 3 mps 745 mmHg 95%

    Day after tomorrow, 21 November, Tuesday

    Time Temperature Precipitation Wind Pressure Humidity
    00:00 +11°C° 0.2 mm 3 mps 745 mmHg 96%
    01:00 +11°C° 0.5 mm 3 mps 745 mmHg 95%
    02:00 +12°C° 0.5 mm 4 mps 744 mmHg 94%
    03:00 +12°C° 0.5 mm 5 mps 744 mmHg 93%
    04:00 +12°C° 0 mm 5 mps 744 mmHg 93%
    05:00 +12°C° 0 mm 5 mps 743 mmHg 92%
    06:00 +12°C° 0 mm 5 mps 743 mmHg 91%
    07:00 +12°C° 0 mm 5 mps 743 mmHg 91%
    08:00 +10°C° 0 mm 5 mps 742 mmHg 91%
    09:00 +10°C° 0 mm 6 mps 742 mmHg 91%
    10:00 +10°C° 0 mm 6 mps 742 mmHg 88%
    11:00 +11°C° 0 mm 6 mps 742 mmHg 85%
    12:00 +11°C° 0 mm 6 mps 741 mmHg 81%
    13:00 +11°C° 0.1 mm 7 mps 740 mmHg 82%
    14:00 +11°C° 0.1 mm 7 mps 740 mmHg 82%
    15:00 +11°C° 0.1 mm 8 mps 739 mmHg 82%
    16:00 +11°C° 0.4 mm 8 mps 738 mmHg 83%
    17:00 +11°C° 0.4 mm 8 mps 737 mmHg 83%
    18:00 +12°C° 0.4 mm 9 mps 736 mmHg 84%
    19:00 +12°C° 0.5 mm 9 mps 736 mmHg 85%
    20:00 +12°C° 0.5 mm 9 mps 736 mmHg 85%
    21:00 +13°C° 0.5 mm 10 mps 735 mmHg 86%
    22:00 +13°C° 0.2 mm 9 mps 735 mmHg 86%
    23:00 +12°C° 0.2 mm 8 mps 735 mmHg 87%

    22 November, Wednesday

    Time Temperature Precipitation Wind Pressure Humidity
    00:00 +12°C° 0.2 mm 8 mps 735 mmHg 88%
    01:00 +12°C° 0.3 mm 7 mps 735 mmHg 88%
    02:00 +12°C° 0.3 mm 7 mps 735 mmHg 88%
    03:00 +13°C° 0.3 mm 6 mps 735 mmHg 88%
    04:00 +13°C° 1.2 mm 6 mps 735 mmHg 89%
    05:00 +11°C° 1.2 mm 6 mps 734 mmHg 90%
    06:00 +12°C° 1.2 mm 5 mps 734 mmHg 91%
    07:00 +13°C° 1 mm 5 mps 734 mmHg 89%
    08:00 +13°C° 1 mm 6 mps 734 mmHg 88%
    09:00 +13°C° 1 mm 6 mps 734 mmHg 87%
    10:00 +12°C° 0.6 mm 7 mps 733 mmHg 84%
    11:00 +12°C° 0.6 mm 8 mps 733 mmHg 82%
    12:00 +13°C° 0.6 mm 9 mps 732 mmHg 79%
    13:00 +13°C° 0.3 mm 9 mps 731 mmHg 80%
    14:00 +13°C° 0.3 mm 10 mps 730 mmHg 80%
    15:00 +13°C° 0.3 mm 10 mps 729 mmHg 80%
    16:00 +13°C° 0.7 mm 10 mps 729 mmHg 81%
    17:00 +12°C° 0.7 mm 9 mps 729 mmHg 82%
    18:00 +12°C° 0.7 mm 9 mps 728 mmHg 82%
    19:00 +12°C° 0.6 mm 9 mps 728 mmHg 83%
    20:00 +12°C° 0.6 mm 8 mps 728 mmHg 83%
    21:00 +12°C° 0.6 mm 7 mps 728 mmHg 84%
    22:00 +12°C° 0.5 mm 8 mps 727 mmHg 83%
    23:00 +12°C° 0.5 mm 8 mps 727 mmHg 82%

    23 November, Thursday

    Time Temperature Precipitation Wind Pressure Humidity
    00:00 +12°C° 0.5 mm 8 mps 726 mmHg 81%
    01:00 +12°C° 0.5 mm 8 mps 726 mmHg 81%
    02:00 +12°C° 0.5 mm 8 mps 726 mmHg 81%
    03:00 +11°C° 0.5 mm 8 mps 726 mmHg 81%
    04:00 +11°C° 0.1 mm 8 mps 727 mmHg 81%
    05:00 +11°C° 0.1 mm 8 mps 728 mmHg 81%
    06:00 +11°C° 0.1 mm 8 mps 728 mmHg 82%
    07:00 +10°C° 0.1 mm 8 mps 730 mmHg 79%
    08:00 +10°C° 0.1 mm 9 mps 731 mmHg 76%
    09:00 +10°C° 0.1 mm 9 mps 732 mmHg 73%
    10:00 +10°C° 0 mm 9 mps 733 mmHg 71%
    11:00 +10°C° 0 mm 8 mps 733 mmHg 70%
    12:00 +10°C° 0 mm 7 mps 734 mmHg 69%
    13:00 +11°C° 0.6 mm 7 mps 733 mmHg 72%
    14:00 +11°C° 0.6 mm 8 mps 733 mmHg 75%
    15:00 +11°C° 0.6 mm 8 mps 733 mmHg 78%
    16:00 +11°C° 0.6 mm 8 mps 732 mmHg 78%
    17:00 +12°C° 0.6 mm 9 mps 732 mmHg 79%
    18:00 +12°C° 0.6 mm 9 mps 732 mmHg 80%
    19:00 +11°C° 0.1 mm 9 mps 733 mmHg 79%
    20:00 +11°C° 0.1 mm 9 mps 734 mmHg 78%
    21:00 +10°C° 0.1 mm 9 mps 734 mmHg 77%
    22:00 +10°C° 0 mm 8 mps 735 mmHg 77%
    23:00 +9°C° 0 mm 7 mps 736 mmHg 77%

    24 November, Friday

    Time Temperature Precipitation Wind Pressure Humidity
    00:00 +9°C° 0 mm 7 mps 736 mmHg 77%
    01:00 +8°C° 0 mm 6 mps 737 mmHg 78%
    02:00 +8°C° 0 mm 5 mps 737 mmHg 79%
    03:00 +7°C° 0 mm 5 mps 738 mmHg 79%
    04:00 +7°C° 0.1 mm 4 mps 738 mmHg 80%
    05:00 +8°C° 0.1 mm 3 mps 738 mmHg 80%
    06:00 +8°C° 0.1 mm 2 mps 738 mmHg 81%
    07:00 +8°C° 0.6 mm 2 mps 738 mmHg 83%
    08:00 +7°C° 0.6 mm 2 mps 737 mmHg 84%
    09:00 +7°C° 0.6 mm 2 mps 737 mmHg 86%
    10:00 +7°C° 1.6 mm 3 mps 736 mmHg 87%
    11:00 +6°C° 1.6 mm 4 mps 736 mmHg 88%
    12:00 +6°C° 1.6 mm 5 mps 735 mmHg 89%
    13:00 +7°C° 2.4 mm 5 mps 734 mmHg 89%
    14:00 +8°C° 2.4 mm 6 mps 733 mmHg 89%
    15:00 +8°C° 2.4 mm 6 mps 732 mmHg 89%
    16:00 +8°C° 0.6 mm 6 mps 732 mmHg 89%
    17:00 +9°C° 0.6 mm 5 mps 732 mmHg 89%
    18:00 +9°C° 0.6 mm 5 mps 732 mmHg 89%
    19:00 +9°C° 0.3 mm 5 mps 732 mmHg 88%
    20:00 +9°C° 0.3 mm 5 mps 732 mmHg 86%
    21:00 +9°C° 0.3 mm 6 mps 732 mmHg 84%
    22:00 +8°C° 0.1 mm 6 mps 733 mmHg 85%
    23:00 +7°C° 0.1 mm 6 mps 734 mmHg 85%
    Show more